GFSNW_sfc_rhum_096.txt.gz
RH
68 66 67 64 66 64 68 56 75 44 45 66 42 48 30 39 23 21 22 24 28 36 38 42 44 40 30 37 45 60 55 100 82 77 43 43 21 41 56 65 56 42 70 93
70 68 66 66 64 64 61 54 42 37 54 84 51 31 26 23 25 24 26 32 30 29 35 54 37 36 28 56 62 69 90 76 94 79 64 35 27 25 39 62 52 83 77 92
69 69 68 64 63 65 65 70 89 43 42 45 51 46 34 33 25 30 32 37 32 49 59 49 56 46 38 57 78 71 96 88 87 90 66 41 43 34 51 62 70 62 59 76
73 70 65 59 61 66 69 74 76 45 72 50 48 51 55 49 48 40 35 42 38 46 58 48 42 56 74 66 70 95 99 94 99 96 88 57 69 67 82 72 53 49 37 48
71 68 62 60 63 69 66 93 56 32 51 53 65 62 53 48 50 58 53 64 51 54 70 56 58 56 65 92 76 99 98 94 90 92 67 50 77 82 68 35 36 32 33 41
72 65 64 65 67 71 62 40 37 46 44 42 51 58 44 51 70 54 45 61 65 64 73 64 66 64 59 63 75 99 99 100 57 45 23 28 45 31 28 53 56 54 69 60
68 64 67 69 68 71 67 49 41 58 52 29 29 31 33 41 52 95 66 60 71 52 57 66 55 57 52 57 65 55 98 93 43 53 45 74 47 34 48 73 72 65 61 61
66 67 68 71 71 69 69 54 54 54 71 28 27 34 38 35 52 82 99 66 68 70 82 84 67 82 84 55 40 43 60 56 53 54 71 75 63 53 56 68 95 77 74 70
72 73 71 68 69 71 68 69 63 67 71 55 34 38 42 43 52 50 69 49 48 86 98 97 94 55 64 83 50 39 36 43 50 49 47 72 75 58 46 48 94 84 78 83
70 71 70 72 72 72 72 90 69 64 87 42 45 48 50 40 42 48 47 54 56 54 81 98 81 58 42 81 64 66 66 60 66 63 67 76 72 56 45 86 99 93 83 85
71 70 73 74 72 71 77 91 62 72 90 55 46 48 51 45 43 59 52 62 60 68 75 64 69 74 65 67 57 67 72 94 83 74 88 83 72 59 80 98 98 94 90 92
76 75 75 74 73 73 78 87 70 70 84 62 63 59 50 46 46 55 55 63 70 78 72 69 73 79 77 91 91 58 86 78 88 80 90 87 79 92 95 86 88 92 91 93
78 75 74 73 73 74 75 91 85 84 93 64 52 48 41 32 35 40 62 60 49 60 54 72 77 97 67 92 86 92 82 65 84 86 85 78 79 80 90 86 90 90 94 93
77 74 72 73 73 75 76 92 74 67 62 80 58 30 38 32 36 38 44 49 49 52 52 68 80 94 67 88 88 79 81 77 82 88 86 79 80 90 94 92 92 91 94 93
73 72 72 73 76 76 74 84 84 69 72 80 58 44 34 34 41 43 42 48 52 58 65 75 78 95 80 88 74 86 80 92 92 95 97 86 94 95 89 86 91 89 84 86
73 73 74 75 75 78 90 100 66 65 60 75 84 46 44 38 43 45 45 45 50 52 58 68 59 72 74 90 89 89 92 100 98 91 88 90 92 85 76 84 87 82 79 78
74 75 72 74 82 89 93 89 95 72 71 84 80 62 44 37 40 43 44 45 47 55 56 65 66 82 77 99 94 91 96 100 100 96 82 93 92 85 72 72 72 70 66 66
75 75 76 80 82 87 91 86 74 68 68 66 84 69 62 45 63 70 48 60 58 60 60 59 68 87 93 95 96 96 93 94 93 86 75 73 62 51 51 50 53 62 66 66
75 76 81 89 95 99 96 78 73 77 93 89 82 81 98 53 57 65 73 64 88 64 82 72 65 82 94 96 93 93 91 91 88 56 48 48 50 49 50 51 54 61 64 63
77 86 97 100 98 86 84 94 98 91 81 74 82 57 79 58 72 77 77 75 69 74 73 63 81 92 76 79 89 84 60 61 52 57 58 55 58 58 58 59 58 59 62 65
92 100 100 98 89 94 96 98 99 84 86 67 70 65 78 54 85 76 63 85 72 71 80 78 88 90 76 59 58 51 51 53 51 51 55 54 56 60 63 66 65 66 65 68
95 96 95 97 99 100 99 86 75 74 63 73 78 72 56 74 60 78 71 73 80 83 75 85 87 87 61 56 57 55 54 53 54 53 57 57 57 58 62 67 73 77 81 86
96 98 100 100 98 97 88 85 76 82 69 82 87 88 71 72 59 86 90 84 84 79 97 83 92 70 58 59 59 60 56 57 58 60 62 66 73 75 81 87 89 86 90 89
100 100 100 99 96 83 80 84 98 88 96 88 85 80 82 81 83 92 91 98 78 87 87 95 83 77 76 68 62 62 82 86 87 89 88 90 92 94 91 91 91 92 92 92
100 100 92 92 94 100 100 100 96 86 83 88 84 89 76 96 98 88 87 94 83 78 90 94 87 84 84 84 89 91 91 91 90 88 92 92 91 91 92 91 89 89 92 90
100 100 99 100 100 100 100 100 100 88 93 83 76 92 99 96 88 91 82 84 76 96 96 96 90 90 88 92 88 87 87 87 90 90 89 89 92 89 86 87 89 90 89 90
100 99 100 100 100 100 100 100 98 83 93 100 81 93 79 87 83 86 81 95 97 96 96 91 89 91 92 90 89 90 89 88 88 88 86 86 87 89 83 84 84 80 81 90

GFSNW_sfc_rhum_099.txt.gz
RH
72 68 70 68 67 64 70 86 95 64 61 92 86 91 34 40 24 26 29 32 36 44 45 47 49 53 40 33 60 65 83 96 94 63 42 60 60 73 71 93 75 63 86 98
68 69 68 68 64 65 86 92 73 60 70 98 94 42 28 24 27 30 34 44 46 42 55 70 59 62 48 70 75 70 88 90 95 71 63 59 66 54 55 69 81 79 92 98
70 69 68 65 63 66 85 97 94 71 76 75 70 66 52 42 37 40 41 44 42 52 63 56 73 67 57 68 78 61 93 95 87 82 60 63 87 69 53 68 84 94 97 99
69 70 67 63 62 67 92 98 91 66 94 82 67 68 68 58 55 47 47 49 58 62 76 72 70 64 76 68 65 76 100 96 90 83 66 71 75 77 84 93 99 99 96 87
74 70 65 62 65 70 90 96 84 48 88 73 75 72 73 59 56 71 62 74 62 66 79 69 96 84 79 92 90 100 99 97 99 98 88 86 99 84 90 93 84 86 76 80
72 68 65 65 69 75 90 73 57 73 62 59 86 87 67 64 78 64 50 72 80 70 67 84 79 74 74 78 86 90 100 100 95 98 83 80 95 83 73 78 76 70 91 82
70 66 69 72 72 76 90 80 78 91 84 56 51 37 41 55 71 79 63 70 86 62 71 77 71 74 77 74 70 65 100 100 93 81 66 89 90 67 73 85 80 72 74 77
68 69 71 73 73 71 90 88 83 88 93 57 40 42 52 54 71 96 93 79 70 76 87 96 91 91 87 73 67 66 81 90 83 79 95 83 67 68 80 87 95 81 84 78
74 75 75 72 70 72 88 95 84 89 97 88 47 58 52 68 80 72 75 58 76 92 100 99 96 81 91 74 59 46 55 67 79 72 87 92 86 72 61 66 97 84 80 82
79 78 74 72 72 73 88 97 88 87 97 68 66 68 68 58 67 75 69 66 74 72 93 96 94 91 67 90 96 85 76 83 92 92 94 85 85 72 59 85 100 91 83 89
79 78 76 74 73 74 86 96 80 88 96 86 65 65 80 75 75 93 75 83 81 90 92 90 86 98 96 96 76 83 87 97 94 89 89 87 84 65 85 99 96 92 93 96
78 78 79 76 75 75 82 96 86 86 96 90 81 72 71 68 62 78 80 97 83 95 94 91 94 98 96 96 99 69 92 99 93 93 94 95 84 92 91 89 94 95 92 92
81 81 76 76 74 75 79 97 90 88 96 92 89 79 65 56 58 54 80 83 68 77 70 92 94 99 92 98 98 89 86 75 92 92 93 91 90 81 84 91 96 94 93 92
80 80 77 76 74 74 77 97 91 95 88 89 83 43 52 48 46 54 61 63 65 72 82 86 94 98 90 99 86 93 92 88 91 96 92 87 89 93 93 92 93 93 96 96
79 74 73 73 74 75 86 95 94 87 94 89 88 63 51 45 51 54 56 62 71 82 88 90 93 96 96 97 85 93 90 98 98 100 94 92 96 95 91 93 94 94 91 91
78 73 72 75 78 78 96 100 94 88 81 92 97 72 60 53 54 59 61 66 67 78 79 90 84 81 92 89 97 95 96 95 99 95 91 92 96 96 87 93 94 95 90 81
77 76 76 76 81 95 96 98 96 87 75 89 98 88 67 49 56 66 68 61 69 80 84 86 83 88 94 99 98 95 99 100 98 88 82 92 95 98 87 86 87 81 73 71
77 78 78 82 83 82 90 89 81 79 82 91 96 78 83 59 82 86 74 82 80 78 86 86 87 97 98 97 98 98 98 98 95 90 80 86 83 82 73 60 62 71 74 73
77 76 81 93 95 98 95 78 77 92 95 98 95 90 98 86 77 84 89 83 96 85 94 90 85 99 99 98 97 97 96 96 95 74 56 55 59 59 58 61 66 79 80 78
80 89 96 100 98 86 85 96 99 98 96 94 92 82 95 82 94 94 94 92 96 97 92 85 97 97 97 96 96 94 92 78 74 70 68 67 71 71 72 73 72 73 73 70
94 100 100 99 90 97 99 99 99 97 95 91 80 85 96 81 94 93 90 96 95 93 94 91 99 97 91 95 93 65 66 61 60 63 69 68 70 75 77 78 72 69 68 76
92 97 95 97 99 100 95 96 94 95 84 93 85 91 79 88 88 95 90 75 93 92 91 90 98 95 72 72 70 72 70 69 69 67 71 72 71 74 77 77 79 87 88 94
97 99 100 99 99 98 92 98 86 94 93 94 92 96 92 91 83 95 94 82 83 95 96 98 99 80 70 73 73 75 72 71 77 81 82 81 82 82 86 94 98 96 96 97
100 99 99 98 95 88 93 94 94 94 97 93 93 94 95 96 92 90 93 91 94 95 97 98 94 84 83 77 75 88 97 94 95 96 94 95 95 96 96 97 98 96 98 98
99 99 97 99 96 99 100 100 96 96 97 94 95 97 95 95 87 90 87 98 93 92 99 99 92 91 92 96 95 95 95 95 96 96 96 97 97 96 99 98 97 96 98 96
100 99 99 99 90 99 99 100 93 99 95 96 96 97 97 98 97 99 93 95 95 100 99 97 92 94 95 95 94 94 94 95 96 96 96 95 96 96 96 97 96 97 95 97
99 99 99 100 99 99 99 100 91 94 97 99 96 86 77 97 94 88 94 100 100 98 98 95 92 95 95 94 92 94 94 95 95 96 94 96 96 94 96 97 95 93 92 92

GFSNW_sfc_rhum_102.txt.gz
RH
81 72 72 71 70 67 70 87 95 67 68 90 91 86 38 39 27 30 34 40 44 56 59 64 63 58 50 53 66 67 86 94 89 68 47 40 63 84 77 91 66 77 94 99
73 71 71 70 67 68 87 90 74 63 74 95 93 52 33 30 40 43 49 52 52 51 62 82 76 69 58 64 72 72 80 85 93 70 70 69 87 91 82 83 99 91 98 99
71 72 71 66 69 68 84 97 93 77 80 78 70 69 57 50 45 47 49 51 55 72 78 66 79 70 60 67 74 58 86 92 88 84 60 58 74 85 84 79 94 94 97 98
71 72 67 65 67 70 86 97 91 71 94 81 69 72 66 61 59 55 53 60 68 74 79 76 76 78 87 78 71 78 100 98 93 89 73 66 65 92 95 97 99 95 97 94
72 70 66 65 68 69 93 94 70 69 90 64 66 74 73 62 60 70 70 77 71 76 87 76 85 87 87 87 84 100 81 98 99 96 82 79 91 100 84 81 93 96 90 87
72 69 66 69 71 76 91 80 68 75 76 73 86 89 72 67 77 66 60 69 91 87 73 67 76 80 77 73 85 87 92 99 98 98 93 93 91 98 85 82 81 75 86 91
70 69 72 74 74 80 92 85 80 90 81 63 64 60 59 67 75 73 64 74 85 74 71 74 78 91 91 90 84 77 99 99 98 98 94 86 99 95 73 81 82 77 78 90
69 73 74 75 74 77 95 95 85 87 92 69 54 55 63 60 69 91 89 77 74 76 87 97 88 93 87 76 78 91 96 98 95 97 92 96 78 76 88 88 92 87 84 86
74 76 75 74 74 76 96 98 91 90 93 86 62 66 60 72 83 74 74 68 80 91 98 95 97 95 95 89 83 55 78 89 97 95 85 90 88 72 63 70 97 90 82 84
80 77 75 76 75 75 94 96 91 89 96 80 73 76 73 71 78 83 79 74 80 76 97 98 98 97 85 94 95 89 81 86 89 91 89 86 87 72 60 86 97 93 88 91
82 78 77 80 78 77 90 97 91 89 98 88 75 74 80 77 86 95 78 84 83 92 94 88 93 97 98 92 83 89 88 98 91 85 83 83 87 64 81 97 95 94 93 97
82 80 81 80 78 78 85 98 92 90 95 83 87 76 66 68 68 82 87 91 87 96 95 90 95 99 96 96 96 75 93 98 94 92 93 93 89 93 94 90 93 96 92 94
83 81 78 78 77 78 86 98 93 96 97 88 87 77 70 71 73 65 83 92 72 79 77 97 94 99 98 98 99 86 89 82 91 87 96 94 92 91 91 94 96 95 94 95
84 80 79 78 77 76 84 96 97 96 97 94 81 55 59 54 57 61 66 68 69 77 90 93 97 97 90 100 89 94 93 92 92 96 95 91 92 96 94 95 96 96 95 94
79 77 76 76 76 78 91 97 96 93 94 97 90 73 59 47 53 55 60 66 74 87 85 92 94 97 92 97 86 97 93 98 99 94 96 93 96 97 93 96 95 88 89 93
80 74 74 76 79 84 96 96 95 94 87 95 97 80 65 60 61 65 69 73 78 88 84 88 90 86 92 97 95 94 96 97 95 99 94 96 97 97 93 95 95 90 90 86
81 78 78 80 83 96 98 95 93 88 80 91 96 86 69 60 65 75 76 71 76 85 90 91 88 92 94 98 99 97 99 95 92 86 86 95 94 97 93 90 86 84 85 81
80 83 83 84 82 83 94 94 84 85 83 95 97 88 86 71 84 83 86 86 88 83 88 90 94 97 96 99 98 99 99 98 95 91 85 87 88 82 73 65 67 75 77 76
81 83 84 92 95 96 94 79 84 93 95 97 97 95 97 85 86 90 90 90 94 88 94 94 88 98 99 95 98 98 97 97 94 75 77 84 81 69 68 72 75 81 81 75
82 91 92 98 91 79 84 94 96 97 96 93 99 92 95 96 97 96 95 95 98 98 93 91 95 97 97 96 97 96 95 89 90 72 77 75 76 76 76 76 72 70 71 69
96 99 98 98 86 97 97 99 97 97 90 92 87 78 96 85 94 94 94 97 97 95 93 93 97 97 95 97 95 86 78 67 68 64 70 68 73 78 77 74 68 64 64 80
91 97 96 97 100 98 93 93 96 99 86 95 87 91 87 90 91 95 92 86 94 90 96 93 98 97 94 95 89 78 70 71 72 69 75 76 74 75 74 74 76 85 85 93
96 98 99 99 97 98 92 99 93 97 94 94 93 92 93 93 88 94 93 80 89 97 98 96 99 87 79 79 79 84 80 79 80 81 79 78 81 82 84 92 97 94 96 98
99 99 99 96 95 93 94 95 93 91 97 93 96 95 94 97 90 92 78 88 94 98 99 97 97 87 86 80 81 84 96 95 94 96 93 93 91 96 98 97 97 95 98 100
99 100 98 99 94 97 100 100 96 99 97 94 95 97 96 97 90 87 86 98 96 93 96 98 94 89 92 95 94 95 96 96 96 95 94 95 95 95 100 100 98 95 99 98
100 99 99 95 94 99 98 98 95 98 97 98 96 98 98 98 96 93 92 96 96 93 99 99 93 94 95 95 94 94 94 94 95 95 94 96 96 95 96 98 98 99 98 98
96 99 98 99 99 96 98 100 89 96 96 98 98 91 83 96 96 92 96 97 99 99 99 94 91 93 97 96 95 94 94 95 95 96 96 96 97 97 97 97 96 94 92 94

GFSNW_sfc_rhum_105.txt.gz
RH
87 83 79 74 70 68 74 87 96 71 72 90 89 88 51 36 28 30 37 42 52 59 60 64 63 64 50 44 67 74 72 98 91 62 43 40 46 65 99 95 88 76 85 99
85 81 76 75 72 70 82 86 81 67 75 96 96 62 36 42 44 48 51 56 54 57 64 79 75 73 62 69 74 74 81 87 93 65 77 71 90 98 95 98 97 88 94 98
82 77 75 73 68 68 86 92 93 77 82 81 69 65 57 58 48 56 53 56 61 73 76 70 82 77 63 74 74 63 74 91 87 77 59 56 91 87 89 97 98 95 97 96
77 73 72 69 71 70 84 96 89 72 95 77 72 72 66 60 60 58 56 63 72 74 82 76 78 74 85 77 71 81 96 97 94 85 69 74 96 98 95 97 95 90 97 92
74 72 70 69 71 74 87 96 71 83 87 72 78 73 72 62 61 67 68 73 71 80 90 72 82 74 84 90 84 94 99 94 98 94 79 96 96 92 75 96 96 95 89 88
71 68 66 69 72 76 88 84 69 74 68 66 84 84 72 71 77 68 59 70 83 93 82 73 70 66 72 75 88 97 98 98 98 98 91 80 85 98 94 89 84 73 82 89
70 68 72 78 77 78 84 88 78 85 82 66 68 70 63 67 73 73 66 72 85 74 70 82 82 84 81 83 88 94 98 98 97 97 96 89 98 95 87 87 87 83 86 88
71 75 76 78 80 80 91 94 79 82 91 67 59 65 67 62 77 88 82 74 74 80 92 93 92 95 94 93 94 99 98 98 98 96 90 95 94 79 86 92 90 87 84 88
76 77 77 78 80 81 93 98 90 84 87 84 66 66 62 73 86 76 74 70 72 87 98 97 97 95 98 90 87 73 77 98 99 90 84 91 89 74 66 71 96 89 82 84
77 76 77 78 80 78 91 97 92 84 96 80 74 73 74 74 80 84 80 75 84 80 95 93 95 95 86 91 94 93 89 93 91 85 87 91 88 79 73 88 95 90 86 90
79 78 80 80 82 80 90 98 95 85 96 84 79 76 72 72 85 93 74 83 85 93 92 89 94 99 99 96 88 91 86 97 90 84 82 88 84 67 81 95 95 92 92 95
83 83 81 80 82 81 84 97 93 88 90 82 91 81 69 64 68 86 88 83 91 96 96 93 94 99 98 98 99 82 93 96 90 92 92 94 90 93 96 93 92 96 91 93
85 84 78 79 82 84 87 97 97 94 92 83 84 76 81 72 71 69 87 95 79 80 84 96 95 96 94 96 99 86 90 84 91 88 93 93 90 91 88 93 96 96 94 95
84 81 79 79 78 81 82 97 98 96 95 92 82 58 65 60 70 70 70 70 73 81 93 95 98 95 96 99 91 93 96 90 88 92 94 88 95 96 95 95 95 95 96 96
80 78 77 76 78 82 93 98 98 96 87 93 84 74 63 57 63 62 69 70 80 90 88 92 96 96 94 98 87 97 97 98 98 93 90 91 99 98 91 94 96 91 91 93
80 76 76 79 82 84 92 96 95 96 95 90 93 80 71 65 64 68 72 75 84 91 88 89 92 86 92 96 98 97 99 97 97 96 95 93 97 97 93 95 96 91 89 88
81 78 80 81 82 96 96 96 94 90 92 94 94 84 67 68 68 81 82 78 83 88 93 90 89 94 92 96 97 97 97 96 94 87 84 94 92 97 94 90 93 85 77 69
80 82 82 82 78 81 91 96 85 85 94 88 96 85 85 75 85 84 92 89 92 85 86 91 96 96 96 99 95 98 93 90 88 89 89 85 90 88 87 80 75 77 79 76
82 85 80 89 95 96 94 82 86 97 94 97 96 94 97 87 92 92 92 91 94 90 95 94 89 95 98 93 95 92 95 92 94 81 81 84 83 80 76 75 75 80 78 71
82 88 92 98 94 80 84 90 94 94 98 90 98 94 95 96 97 96 96 96 98 89 92 92 96 98 90 96 94 92 95 80 78 91 93 88 80 79 82 79 74 73 73 74
95 96 98 99 87 95 96 98 91 95 94 92 94 87 95 87 94 95 96 98 98 97 94 97 97 96 97 98 98 96 98 85 79 73 75 72 72 79 77 74 68 66 68 82
93 97 94 96 99 98 87 88 91 93 89 96 92 92 87 90 94 95 94 90 94 92 96 98 99 98 97 94 94 96 75 76 75 71 75 76 72 72 73 73 74 82 85 91
97 98 98 97 99 97 86 98 92 99 95 93 96 94 92 95 87 94 92 83 91 97 99 96 97 93 93 91 92 86 80 78 78 80 77 77 80 81 86 90 97 91 92 98
98 92 99 96 98 86 95 95 94 93 97 97 96 96 94 98 90 96 83 87 97 97 99 96 99 95 91 86 82 82 94 94 93 95 93 93 92 95 95 93 97 95 99 100
99 96 95 98 94 95 97 99 98 100 98 96 97 98 96 97 90 89 87 98 97 96 94 97 97 92 91 94 94 95 96 96 96 95 94 93 94 92 100 100 99 96 100 100
98 96 96 98 97 98 98 98 96 98 97 98 94 97 96 98 97 91 88 96 97 93 100 99 95 94 95 95 94 94 95 94 95 94 92 93 94 92 94 98 99 100 96 98
94 99 99 99 99 97 98 98 96 96 94 99 96 94 88 96 99 98 97 94 97 98 99 96 92 92 96 96 96 95 94 95 95 95 93 97 97 96 96 95 97 95 93 97

GFSNW_sfc_rhum_111.txt.gz
RH
79 90 93 91 86 76 77 96 98 85 81 89 86 78 61 38 31 36 39 41 37 45 51 50 50 49 45 46 52 54 58 80 76 58 42 52 47 50 78 87 72 81 85 87
82 93 91 89 80 70 85 99 99 77 80 98 88 68 46 40 41 46 48 53 51 48 53 55 56 58 60 59 61 62 74 76 72 61 87 67 62 66 80 98 86 84 90 94
93 90 89 83 74 69 74 96 98 90 86 86 63 65 56 55 51 51 47 53 56 62 62 61 66 66 61 65 67 61 73 80 79 46 32 41 69 74 78 94 92 68 93 93
91 90 84 79 79 77 79 94 91 72 93 86 76 68 61 57 62 53 49 59 60 61 69 70 70 66 74 66 63 64 87 87 86 81 62 66 93 89 89 93 81 84 95 90
90 87 82 81 82 76 93 96 83 76 73 77 84 69 66 59 62 63 58 60 66 64 69 58 75 71 74 79 70 90 92 88 97 96 63 84 90 92 93 94 95 92 92 88
88 84 83 83 82 75 90 86 71 74 72 67 67 73 66 67 75 61 56 67 70 74 68 63 57 56 65 68 78 96 98 95 92 89 85 84 93 96 94 94 87 90 83 79
87 84 84 80 83 75 76 76 73 81 74 56 49 59 58 68 65 80 64 69 74 68 70 74 79 82 76 74 74 83 98 96 89 88 95 92 96 93 75 79 80 74 74 76
88 88 87 84 82 78 82 83 70 72 78 59 63 60 66 73 76 80 80 68 66 78 80 82 87 88 91 89 91 99 100 97 91 95 88 91 92 83 88 86 88 83 79 80
84 82 80 82 82 78 88 95 86 76 68 68 56 66 61 68 74 68 74 66 71 73 85 80 97 87 90 87 96 96 99 99 87 87 86 85 80 72 71 78 91 80 76 77
84 85 86 85 80 76 85 98 90 79 94 75 62 64 64 66 65 64 68 73 75 68 82 89 85 87 78 78 83 87 87 95 90 88 80 80 77 76 78 97 94 83 77 82
85 85 84 82 77 75 83 97 91 81 96 82 74 64 73 70 63 68 72 77 73 80 82 78 85 90 91 86 82 91 91 94 90 86 81 85 76 79 86 90 87 83 85 91
86 85 84 82 77 75 78 94 87 83 86 83 83 77 68 53 56 81 83 70 84 87 82 74 82 89 81 90 87 73 90 92 89 88 83 86 88 91 86 75 84 85 84 85
88 86 84 81 79 76 78 98 95 88 90 77 76 77 74 66 66 69 75 87 76 82 77 79 86 87 87 83 84 85 90 80 79 82 88 88 88 86 82 79 89 84 82 84
87 86 86 84 81 81 84 98 97 82 80 89 78 60 70 67 67 66 69 75 77 80 79 83 88 82 84 91 79 81 87 78 76 88 88 82 86 87 88 91 88 88 86 84
85 84 83 82 82 82 87 98 98 86 77 86 71 70 67 68 66 68 69 73 75 73 74 82 90 91 87 88 74 88 88 89 88 86 79 79 88 91 87 88 90 84 83 84
84 81 80 78 78 72 90 94 84 92 77 78 88 74 69 62 64 71 74 74 78 75 72 81 87 84 83 91 86 90 94 92 87 89 82 85 88 89 81 86 87 78 77 73
86 85 84 83 84 94 96 90 90 86 78 86 86 78 66 67 72 80 77 78 80 76 78 80 88 86 82 89 90 94 94 96 91 83 80 93 86 87 83 80 77 70 62 59
85 81 80 79 78 82 94 96 86 80 81 77 90 80 84 73 80 82 85 81 78 77 75 80 87 86 82 92 94 95 92 90 85 86 75 70 78 78 78 68 62 62 61 56
78 73 73 88 95 98 97 85 79 90 86 90 84 78 83 81 89 88 85 79 88 81 86 85 83 89 91 87 92 94 87 80 88 82 79 78 78 79 73 68 65 64 63 58
73 85 89 99 98 83 80 85 88 90 93 89 92 84 88 88 90 91 90 89 90 82 90 85 90 87 85 81 78 76 74 78 75 83 85 78 80 76 72 69 64 61 60 61
95 99 99 98 88 90 92 95 92 90 84 82 86 81 91 84 87 84 91 94 93 91 87 92 91 89 85 88 84 79 77 73 67 63 66 65 68 71 73 73 69 66 64 73
94 94 92 92 91 91 86 93 88 82 80 89 85 82 74 91 88 89 91 82 87 85 93 96 91 89 90 84 84 84 74 69 71 68 69 69 67 68 70 70 73 79 82 90
89 88 97 88 91 90 88 98 92 98 93 93 93 92 89 89 76 88 81 82 87 86 91 80 85 87 89 89 90 88 77 75 74 75 72 72 73 73 80 87 90 88 90 93
95 90 97 93 93 89 91 90 93 90 92 92 90 95 88 93 86 92 82 84 89 95 86 89 88 91 96 96 95 87 92 90 89 90 89 91 90 92 89 86 86 85 89 93
97 92 94 94 93 94 95 95 98 98 94 92 92 94 86 91 88 87 83 97 96 91 88 89 90 95 95 96 97 96 95 95 94 92 92 92 90 87 88 87 86 85 91 92
94 94 96 98 96 97 99 98 98 95 95 91 89 87 93 97 90 82 88 87 91 84 92 95 95 98 96 95 94 95 95 93 94 92 91 90 86 82 86 92 90 92 89 91
91 98 99 99 99 99 99 99 97 96 91 97 87 92 94 92 95 96 90 93 89 94 97 94 94 95 96 95 94 94 93 93 93 91 89 88 88 90 86 85 88 84 82 89

GFSNW_sfc_rhum_114.txt.gz
RH
79 83 85 87 90 83 86 96 98 90 88 97 94 71 42 36 21 22 25 24 26 27 29 32 31 34 29 27 37 39 36 56 50 38 30 33 29 36 43 65 62 50 64 79
79 82 84 91 88 78 92 99 100 95 94 96 83 48 39 27 24 25 28 31 29 35 36 43 37 41 42 45 41 40 51 52 57 52 80 54 73 51 42 64 80 73 82 89
80 82 82 91 84 76 92 98 99 100 99 79 60 54 42 36 30 30 33 40 38 42 41 36 45 45 51 53 49 53 57 60 72 44 33 33 53 65 68 79 89 63 80 98
81 82 81 88 81 77 93 91 85 65 96 85 57 48 41 36 42 36 36 47 39 37 44 44 47 44 61 55 58 50 67 69 76 71 49 47 70 77 68 92 75 92 95 91
82 81 83 85 79 78 96 99 60 51 62 59 64 54 44 38 47 48 41 40 38 38 41 38 52 52 55 72 50 55 57 75 86 85 58 67 96 86 80 94 80 96 92 86
80 78 89 84 81 80 96 66 42 48 59 58 62 58 45 49 69 47 34 38 47 49 41 39 37 39 48 51 64 80 98 93 94 84 64 81 94 90 94 93 83 88 81 82
79 90 87 82 84 80 70 50 45 61 69 53 45 36 41 44 48 100 49 47 52 51 50 52 55 55 53 54 56 60 99 100 86 78 90 89 99 89 74 75 82 74 76 66
91 86 88 84 80 78 75 54 47 59 75 49 44 40 42 42 59 72 82 55 50 53 54 66 73 88 91 81 70 72 100 97 88 86 70 84 86 84 79 88 86 66 66 67
90 87 87 88 79 74 69 68 56 51 79 69 40 41 44 46 54 59 68 62 59 59 59 74 86 76 72 78 96 92 99 100 92 69 67 72 70 61 60 62 90 69 63 65
88 88 92 90 81 76 64 87 76 50 85 50 39 42 44 39 41 43 56 62 66 55 68 82 67 65 56 66 69 82 85 97 85 70 76 67 62 63 62 94 96 72 64 70
90 91 89 86 80 72 58 82 71 58 80 65 50 49 52 49 37 50 57 60 61 59 65 56 58 77 76 67 61 75 82 86 80 71 73 73 67 69 85 89 77 77 79 90
87 87 85 82 77 72 66 71 60 54 59 66 60 61 52 38 38 51 62 55 60 63 53 53 62 80 77 74 77 64 87 80 70 77 77 76 78 84 73 66 76 78 78 80
84 83 83 81 75 72 62 72 57 50 66 53 42 57 55 48 52 53 49 55 56 64 56 66 65 80 64 74 65 74 83 87 84 78 80 79 79 72 66 66 82 74 74 79
86 85 84 82 79 74 63 65 64 45 43 72 68 49 57 53 47 50 49 58 62 60 54 64 71 77 64 84 66 65 82 80 79 85 81 75 80 83 81 81 80 80 79 79
87 85 83 81 79 75 69 80 66 56 39 58 58 53 56 49 46 50 50 53 55 50 58 68 80 76 73 76 58 76 73 88 82 85 76 76 89 86 77 82 83 76 73 71
84 83 80 77 73 69 55 97 54 55 35 46 73 58 54 50 50 53 54 52 51 46 49 65 77 66 73 90 73 91 92 97 82 83 76 78 83 79 68 75 75 66 63 57
87 86 85 85 82 81 75 72 74 68 46 60 64 60 54 52 52 54 53 57 51 46 50 58 66 68 66 89 86 93 94 96 81 67 70 86 81 81 69 67 65 62 52 48
83 81 80 81 79 71 68 72 71 56 46 46 70 68 64 57 56 62 55 54 50 51 48 59 59 72 71 90 96 89 89 83 75 67 61 62 61 63 62 57 52 53 51 46
73 74 76 73 80 78 72 85 68 59 56 70 63 70 85 60 59 66 62 53 74 57 63 62 63 70 88 98 91 87 82 76 79 64 55 58 63 63 58 53 51 48 47 40
74 69 74 100 84 84 73 63 79 71 68 60 72 55 79 62 69 72 69 63 66 68 72 66 70 76 73 70 67 67 66 61 62 69 72 64 66 62 58 56 49 44 39 41
78 90 95 79 84 68 70 94 82 64 68 58 64 62 76 66 74 76 70 77 74 68 78 79 72 74 76 69 64 59 63 62 58 55 56 55 56 59 59 58 53 49 45 54
85 78 77 74 72 76 78 84 76 64 67 71 74 68 59 81 67 68 70 71 80 79 86 89 75 82 68 66 64 62 63 61 57 55 57 57 56 56 58 58 59 59 65 82
65 65 89 69 77 82 76 86 87 87 79 79 80 89 72 74 54 81 69 86 85 74 92 71 78 73 69 69 68 68 59 59 58 60 59 57 60 60 68 75 84 85 86 85
85 88 91 86 88 85 86 85 92 89 86 80 75 85 75 80 80 95 88 94 78 88 79 73 81 86 94 96 85 68 79 85 81 80 79 83 87 89 87 86 85 85 84 84
94 77 93 90 96 96 99 99 93 92 81 77 77 77 67 83 90 78 80 90 84 76 78 91 89 90 94 97 100 96 91 92 91 89 90 90 89 87 87 83 77 78 83 83
82 86 93 99 100 100 100 100 100 87 87 75 69 83 94 96 81 78 76 71 70 89 97 98 94 95 100 97 97 96 92 90 91 90 88 88 87 82 77 76 76 77 78 82
87 99 100 100 100 100 100 100 95 83 83 96 75 88 94 81 89 86 76 94 98 100 100 93 98 97 98 97 95 95 95 94 91 90 87 85 82 81 73 72 77 70 74 80